Weather History for Blytheville Muni Airport, AR

Change the Weather History Date:

Saturday, January 5, 2013

  Actual Average Record
Temperature  
Mean Temperature 36 °F -  
Max Temperature 43 °F 43 °F 75 °F (1955)
Min Temperature 30 °F 27 °F 5 °F (1940)
Degree Days  
Heating Degree Days 28    
Moisture  
Dew Point 31 °F    
Average Humidity 80    
Maximum Humidity 92    
Minimum Humidity 65    
Precipitation  
Precipitation 0.00 in - - ()
Sea Level Pressure  
Sea Level Pressure 30.33 in    
Wind  
Wind Speed 5 mph (SSW)    
Max Wind Speed 12 mph    
Max Gust Speed -    
Visibility 10 miles    
Events Rain    
Averages and records for this station are not official NWS values.
T = Trace of Precipitation, MM = Missing Value Source: NWS Daily Summary

Daily Weather History Graph

Daily Weather History Graph

Search for Another Location

Airport:

Trip Planner

Search our weather history database for the weather conditions in past years. The results will help you decide how hot, cold, wet, or windy it might be!

Date:

Astronomy

Jan. 05, 2013 Rise Set
Actual Time 7:10 AM CST 4:59 PM CST
Civil Twilight 6:41 AM CST 5:28 PM CST
Nautical Twilight 6:10 AM CST 5:59 PM CST
Astronomical Twilight 5:39 AM CST 6:30 PM CST
Moon 12:23 AM CST (1/5) 11:43 AM CST (1/5)
Length of Visible Light 10h 46m
Length of Day
9h 49m
Last Quarter, 44% of the Moon is Illuminated
Jan 5
Last Quarter
Jan 11
New
Jan 18
First Quarter
Jan 26
Full
Feb 3
Last Quarter

Hourly Weather History & Observations

Time (CST) Temp. Windchill Dew Point Humidity Pressure Visibility Wind Dir Wind Speed Gust Speed Precip Events Conditions
12:53 AM 30.9 °F 27.5 °F 28.0 °F 89% 30.39 in 10.0 mi South 3.5 mph - N/A   Clear
1:53 AM 30.9 °F 26.2 °F 28.0 °F 89% 30.39 in 10.0 mi South 4.6 mph - N/A   Clear
2:53 AM 30.9 °F 25.2 °F 27.0 °F 85% 30.40 in 10.0 mi SSE 5.8 mph - N/A   Clear
3:53 AM 32.0 °F 27.5 °F 28.0 °F 85% 30.38 in 10.0 mi SSE 4.6 mph - N/A   Clear
5:53 AM 33.1 °F 28.7 °F 28.0 °F 82% 30.38 in 10.0 mi SSE 4.6 mph - N/A   Overcast
6:53 AM 32.0 °F 27.5 °F 28.0 °F 85% 30.40 in 10.0 mi South 4.6 mph - N/A   Scattered Clouds
7:53 AM 34.0 °F 29.8 °F 28.0 °F 79% 30.40 in 10.0 mi SSE 4.6 mph - N/A   Overcast
8:53 AM 35.1 °F 30.1 °F 30.0 °F 82% 30.41 in 10.0 mi South 5.8 mph - N/A   Overcast
9:53 AM 37.9 °F 33.5 °F 30.9 °F 76% 30.41 in 10.0 mi South 5.8 mph - N/A   Overcast
10:53 AM 39.9 °F 35.8 °F 30.0 °F 68% 30.39 in 10.0 mi SSW 5.8 mph - N/A   Overcast
11:53 AM 41.0 °F 37.1 °F 32.0 °F 70% 30.33 in 10.0 mi South 5.8 mph - 0.00 in Rain Light Rain
12:53 PM 43.0 °F 41.3 °F 33.1 °F 68% 30.30 in 10.0 mi SW 3.5 mph - 0.00 in   Overcast
1:53 PM 43.0 °F 37.7 °F 32.0 °F 65% 30.28 in 10.0 mi SW 9.2 mph - N/A   Overcast
2:53 PM 43.0 °F 36.8 °F 33.1 °F 68% 30.28 in 10.0 mi SW 11.5 mph - N/A   Overcast
3:53 PM 43.0 °F 38.2 °F 35.1 °F 74% 30.27 in 10.0 mi SSW 8.1 mph - N/A   Overcast
5:53 PM 41.0 °F 37.1 °F 35.1 °F 79% 30.28 in 10.0 mi SSW 5.8 mph - N/A   Overcast
6:53 PM 39.0 °F 36.8 °F 34.0 °F 82% 30.28 in 10.0 mi SSW 3.5 mph - N/A   Scattered Clouds
7:53 PM 37.9 °F 34.4 °F 33.1 °F 83% 30.28 in 10.0 mi SSW 4.6 mph - N/A   Clear
8:53 PM 37.0 °F 32.4 °F 30.9 °F 79% 30.27 in 10.0 mi SSW 5.8 mph - N/A   Clear
9:53 PM 34.0 °F 28.8 °F 30.9 °F 89% 30.27 in 10.0 mi SSW 5.8 mph - N/A   Clear
10:53 PM 35.1 °F 28.6 °F 32.0 °F 89% 30.27 in 10.0 mi SSW 8.1 mph - N/A   Clear
11:53 PM 34.0 °F 28.0 °F 32.0 °F 92% 30.26 in 10.0 mi SSW 6.9 mph - N/A   Clear